Regional Weather Roundup
Issued by NWS Boston, MA

Home | Current Version | Previous Version | Text Only | Print | Product List | Glossary On
Versions: 1 2 3 4 5 6 7 8 9 10 11 12 13 14 15 16 17 18 19 20 21 22 23 24 25
110
ASUS41 KBOX 221510
RWRBOX

REGIONAL WEATHER ROUNDUP
NATIONAL WEATHER SERVICE TAUNTON MA
1100 AM EDT FRI MAY 22 2015

NOTE:  "FAIR" INDICATES FEW OR NO CLOUDS BELOW 12,000 FEET WITH NO
SIGNIFICANT WEATHER AND/OR OBSTRUCTIONS TO VISIBILITY.  THE FOLLOWING
OBSERVATION LOCATIONS DO NOT REPORT PRESENT WEATHER...PROVINCETOWN...
SMITHFIELD...BLOCK ISLAND...KEENE...AND OXFORD.

MAZALL-221600-
EASTERN MASSACHUSETTS

CITY           SKY/WX    TMP DP  RH WIND       PRES   REMARKS
BOSTON         MOSUNNY   67  37  33 NW7       29.81S
BEVERLY        MOSUNNY   68  38  33 NW12      29.80S
LAWRENCE       SUNNY     68  38  33 W10       29.81F
BEDFORD        SUNNY     67  35  30 W9        29.80F
BLUE HILL        N/A     66  38  35 NW10G16   29.81S
NORWOOD        SUNNY     68  38  33 NW12G17   29.82R
MARSHFIELD     SUNNY     64  43  45 NE7       29.83S
PLYMOUTH       SUNNY     65  42  43 W10       29.82S
TAUNTON        SUNNY     68  40  35 NW9       29.82S
NEW BEDFORD    SUNNY     66  45  46 N8        29.82S
$$

MAZALL-221600-
CAPE COD AND THE ISLANDS

CITY           SKY/WX    TMP DP  RH WIND       PRES   REMARKS
FALMOUTH       MOSUNNY   64  46  52 VRB6G13   29.83S
HYANNIS        SUNNY     62  44  51 N12       29.82R
CHATHAM        PTSUNNY   56  52  86 VRB3      29.84R
PROVINCETOWN   SUNNY     59  45  58 NW6       29.83S
NANTUCKET      MOSUNNY   57  49  74 NW6       29.85R
MARTHAS VNYRD  SUNNY     62  48  60 NW9       29.84R
$$

MAZALL-221600-
CENTRAL AND WESTERN MASSACHUSETTS

CITY           SKY/WX    TMP DP  RH WIND       PRES   REMARKS
WORCESTER      SUNNY     64  35  34 NW12G18   29.84S
FITCHBURG      SUNNY     68  35  29 NW9G16    29.82F
ORANGE         SUNNY     66  36  32 W10       29.83F
SPRINGFIELD    SUNNY     68  37  31 W14G22    29.83F
WESTFIELD      SUNNY     69  37  30 NW14      29.85S
NORTH ADAMS    MOSUNNY   62  37  39 W17G31    29.85F
PITTSFIELD     SUNNY     62  39  42 NW17G25   29.85F
$$

RIZALL-221600-
RHODE ISLAND

CITY           SKY/WX    TMP DP  RH WIND       PRES   REMARKS
PROVIDENCE     MOSUNNY   69  38  32 W12       29.84R
NEWPORT        SUNNY     65  43  44 N9        29.84R
BLOCK ISLAND   SUNNY     61  48  63 W10       29.88R
SMITHFIELD     SUNNY     66  37  34 NW9G18    29.84R
WESTERLY       SUNNY     68  40  35 NW8G18    29.86S
$$

CTZALL-221600-
CONNECTICUT

CITY           SKY/WX    TMP DP  RH WIND       PRES   REMARKS
BRADLEY INTL   MOSUNNY   69  40  34 NW12      29.85S
HARTFORD       SUNNY     68  39  34 VRB7      29.86S
BRIDGEPORT     SUNNY     64  45  49 S14       29.89S
DANBURY        SUNNY     65  39  38 NW10G17   29.91S
GROTON         SUNNY     69  40  34 NW10      29.86R
NEW HAVEN      SUNNY     64  48  56 S9        29.89R
CHESTER        FAIR      66  37  34 NW5G16    29.88S
MERIDEN        SUNNY     70  37  29 NW15G21   29.88R
WILLIMANTIC    SUNNY     67  40  37 W7G21     29.86S
OXFORD         MOSUNNY   64  41  42 N8G16     29.90S
$$

MEZ002-015-021-024-NHZ003-005-008-011-012-014-VTZ005-008-221600-
NORTHERN NEW ENGLAND

CITY           SKY/WX    TMP DP  RH WIND       PRES   REMARKS
PORTLAND ME    MOSUNNY   65  48  54 S9        29.78S
BANGOR ME      PTSUNNY   58  47  66 S12       29.79F
CONCORD NH     SUNNY     69  33  26 MISG      29.79F
MANCHESTER NH  MOSUNNY   69  34  27 NW9       29.79S
NASHUA NH      SUNNY     68  35  29 W7G17     29.81F
PORTSMOUTH NH  MOSUNNY   69  36  30 VRB6      29.78S
JAFFREY NH     SUNNY     63  37  38 VRB6      29.83F
KEENE NH       PTSUNNY   64  37  36 NW9       29.82F
BURLINGTON VT  PTSUNNY   59  38  45 N15G23    29.88R
MT. WASHINGTON NOT AVBL
$$

NYZ052-076-221600-
EASTERN NEW YORK

CITY           SKY/WX    TMP DP  RH WIND       PRES   REMARKS
ALBANY         MOSUNNY   65  40  39 W16G24    29.89R
NEW YORK CITY  SUNNY     68  39  34 NW6       29.92S
$$

ANZALL-221600-
MARINE OBSERVATIONS

STATION/POSITION TIME  TEMP    WIND        PRES    VSBY  WAVE
                       AIR SEA DIR/SP/G                  HT/PER
                 (UTC) (F)     (DEG/KT/KT) (MB)    (MI)  (FT/S)
BOSTON BUOY      1450   55 54  190/  4/  6   N/A           1/ 9
BUZZARDS BAY     1500          220/  9/ 10   N/A
NANTUCKET SOUND  1450   52 54  180/  2/  4   N/A           1
MASS BAY-STELLWA 1404   54 53  180/  6/  6   N/A    1 7/8  1/ 4
ISLE OF SHOALS   1500   56     180/  8/  9 1084.0F
S OF BLOCK IS    1408      53                N/A           2/ 4
$$

......................KEY.........................
  SKY/WX - SKY CONDITION/PRESENT WEATHER
  TMP    - TEMPERATURE IN FAHRENHEIT
  DWPT   - DEWPOINT IN FAHRENHEIT
  RH     - RELATIVE HUMIDITY IN PERCENT
  WIND   - DIRECTION AND SPEED IN MPH
  PRES   - MEAN SEA LEVEL PRESSURE IN INCHES OF HG
  WCI    - WIND CHILL INDEX
  VSB    - VISIBILITY IN MILES
  HX     - HEAT INDEX
  TC     - TEMPERATURE IN CELSIUS
  VRB    - VARIABLE WIND DIRECTION
  N/A    - NOT AVAILABLE



USA.gov is the U.S. government's official web portal to all federal, state and local government web resources and services.